Regional Weather Roundup
Issued by NWS

Home | Current Version | Previous Version | Graphics & Text | Print | Product List | Glossary On
Versions: 1 2 3 4 5 6 7 8 9 10 11 12 13 14 15 16 17 18 19 20 21 22 23 24 25 26 27 28 29 30 31 32 33 34 35 36 37 38 39 40 41 42 43 44 45 46 47 48 49 50
141
ASUS43 KDTX 082010
RWRMI
MICHIGAN HOURLY REGIONAL WEATHER ROUNDUP
NATIONAL WEATHER SERVICE DETROIT/PONTIAC MI
300 PM EST THU DEC 08 2016

NOTE: "FAIR" INDICATES FEW OR NO CLOUDS BELOW 12,000 FEET WITH NO
SIGNIFICANT WEATHER AND/OR OBSTRUCTION TO VISIBILITY.

MIZ047>049-052>055-059>063-066>070-074>076-081>083-082100-
SOUTHEAST LOWER MICHIGAN

CITY           SKY/WX    TMP DP  RH WIND       PRES   REMARKS
ADRIAN         LGT SNOW  23  18  81 W15G23    30.17R WCI  10
ALMA           CLOUDY    28  20  72 W15G22    30.09R WCI  16
ANN ARBOR      CLOUDY    26  20  77 SW13      30.11R WCI  15
BAD AXE        CLOUDY    28  18  65 W15G25    30.00R WCI  16
CARO           CLOUDY    28  19  67 W16       30.03R WCI  16
DETROIT CITY   LGT SNOW  28  22  78 W13G22    30.09R WCI  17
DETROIT        LGT SNOW  27  21  78 W17       30.12R WCI  14
FLINT          CLOUDY    27  17  66 W20G28    30.08R WCI  13
GROSSE ILE     CLOUDY    28  20  72 W21G29    30.11R WCI  15
HILLSDALE      LGT SNOW  21  18  86 W12G17    30.14R WCI   9
HOWELL         LGT SNOW  26  18  71 NW16G24   30.09R WCI  14

CITY           SKY/WX    TMP DP  RH WIND       PRES   REMARKS
JACKSON        LGT SNOW  23  19  85 W14       30.13R FOG     WCI  11
LAMBERTVILLE   LGT SNOW  27  19  72 W12G28    30.17R WCI  17
LANSING        LGT SNOW  25  19  78 W16       30.12R WCI  12
LAPEER         NOT AVBL
MASON          LGT SNOW  25  22  86 W14G20    30.11R WCI  13
MT. CLEMENS    FLURRIES  29  18  62 W16G30    30.05R WCI  18
PONTIAC        CLOUDY    26  15  63 W22G30    30.06R WCI  12
PORT HOPE        N/A     30  19  63 W12G24    29.95R WCI  20
PORT HURON     CLOUDY    28  18  64 W12G21    30.05R WCI  18
TRI CITIES     PTSUNNY   30  20  66 W18G28    30.05R WCI  18
MIDLAND        CLOUDY    30  18  61 W14G24    30.04R WCI  19
TROY           CLOUDY    31  16  52 W18G30    30.09R WCI  19
SAGINAW HB     CLOUDY    30  18  59 W18G30    30.05R WCI  18
$$
MIZ043>046-050>051-056>058-064>065-071>073-077>080-082100-
SOUTHWEST LOWER MICHIGAN

CITY           SKY/WX    TMP DP  RH WIND       PRES   REMARKS
BATTLE CREEK   LGT SNOW  25  20  81 W13       30.16R WCI  14
BENTON HARBOR  CLOUDY    26  18  71 W16G26    30.23R HAZE    WCI  14
BIG RAPIDS     LGT SNOW  26  22  83 W13G18    30.06R VSB 1   WCI  15
COLDWATER      LGT SNOW  23  19  86 W14       30.18R WCI  11
FREMONT        LGT SNOW  27  24  88 W7        30.11R WCI  19
HOLLAND        FLURRIES  27  20  75 W13G21    30.17R WCI  16
GRAND RAPIDS   FLURRIES  26  20  77 W13       30.14R WCI  15
KALAMAZOO      LGT SNOW  24  18  77 W12       30.18R VSB 1   WCI  13
LUDINGTON      CLOUDY    32  24  72 NW15G25   30.09R WCI  21
MARSHALL       LGT SNOW  25  20  83 W12G20    30.15R WCI  14
MOUNT PLEASANT CLOUDY    28  20  73 W14G21    30.05R WCI  17
MUSKEGON       FLURRIES  29  21  72 W12G20    30.15R WCI  19
SOUTH HAVEN    FLURRIES  27  20  77 W16G24    30.20R WCI  14
$$
MIZ016>042-082100-
NORTHERN LOWER MICHIGAN

CITY           SKY/WX    TMP DP  RH WIND       PRES   REMARKS
ALPENA         CLOUDY    32  17  54 NW13G24   29.93R WCI  22
BEAVER ISLAND  MOSUNNY   30  21  68 NW13G18   30.02R WCI  20
BELLAIRE       LGT SNOW  31  26  80 NW7       30.01R WCI  24
CADILLAC       FLURRIES  28  23  79 W13G18    29.99R WCI  18
CHARLEVOIX     MOSUNNY   32  19  59 NW20G26   30.03R WCI  20
FRANKFORT      PTSUNNY   34  24  68 NW14G23   30.05R WCI  24
GAYLORD        PTSUNNY   31  19  61 NW10G21   29.94R WCI  22
GRAYLING       LGT SNOW  30  25  83 NW14G20   29.97R WCI  19
HARBOR SPRINGS PTSUNNY   31  17  57 NW14G23   29.99R WCI  21
HOUGHTON LAKE  FLURRIES  28  22  78 W16       29.97R WCI  16
MANISTEE       MIX PCPN  32  22  66 NW20G26   30.06R WCI  20
OSCODA         PTSUNNY   32  21  64 MISG      29.95R
PELLSTON       CLOUDY    29  19  66 NW20      29.98R WCI  16
ROGERS CITY    LGT SNOW  31  24  75 NW14G21   29.94R WCI  20
TRAVERSE CITY  PTSUNNY   33  23  66 NW13G23   30.02R WCI  24
$$
MIZ007>008-015-082100-
EASTERN UPPER MICHIGAN

CITY           SKY/WX    TMP DP  RH WIND       PRES   REMARKS
KINROSS        FLURRIES  27  20  75 N10G20    29.95R WCI  17
MACKINAC ISLAN LGT SNOW  27  24  85 N12G24    29.97R VSB 1   WCI  17
NEWBERRY       FLURRIES  28  20  72 NW10G17   29.99R WCI  18
S. S. MARIE    MIX PCPN  29  15  56 N13       29.95R WCI  19
MUNISING         N/A     32  25  75 N17       30.05R WCI  21
$$
MIZ004>006-011>014-085-082100-
CENTRAL UPPER MICHIGAN

CITY           SKY/WX    TMP DP  RH WIND       PRES   REMARKS
MANISTIQUE     LGT SNOW  28  27  99 N10       30.04R WCI  18
ESCANABA       FLURRIES  30  23  75 NW15G23   30.09R WCI  19
MENOMINEE      FLURRIES  32  18  56 N14       30.11R WCI  22
SAWYER-GWINN   LGT SNOW  27  23  86 NW15G21   30.06R WCI  15
$$
MIZ001>003-009>011-084-082100-
WESTERN UPPER MICHIGAN

CITY           SKY/WX    TMP DP  RH WIND       PRES   REMARKS
IRON MOUNTAIN  MOSUNNY   28  18  66 N14       30.08R WCI  17
HOUGHTON       CLOUDY    28  15  58 NW16      30.11R WCI  16
COPPER HARBOR    N/A     30  23  75 NE26G36   30.10R WCI  16
IRONWOOD       CLOUDY    27  19  72 NW10G20   30.20R WCI  17
$$

ABBREVIATIONS USED IN REMARKS
   TC - TEMPERATURE IN CELSIUS
  WCI - WIND CHILL INDEX
   HX - HEAT INDEX
  VSB - VISIBILITY





USA.gov is the U.S. government's official web portal to all federal, state and local government web resources and services.